Regional Weather Roundup
Issued by NWS Green Bay, WI

Home | Current Version | Previous Version | Graphics & Text | Print | Product List | Glossary Off
Versions: 1 2 3 4 5 6 7 8 9 10 11 12 13 14 15 16 17 18 19 20 21 22 23 24 25 26 27 28 29 30 31 32 33 34 35 36 37 38 39 40 41 42 43 44 45 46 47 48 49 50

000
ASUS43 KGRB 221210
RWRGRB

NORTH-CENTRAL AND NORTHEAST WISCONSIN REGIONAL WEATHER ROUNDUP
NATIONAL WEATHER SERVICE GREEN BAY WI
700 AM CDT WED OCT 22 2014

WIZ005-009-010>012-018-019-221300-
NORTH CENTRAL WISCONSIN

CITY           SKY/WX    TMP DP  RH WIND       PRES   REMARKS
IRONWOOD       CLEAR     37  32  81 S7        30.26R
MANITOWISH WTR CLEAR     32  32 100 S3        30.30S
ARBOR VITAE    CLEAR     34  32  94 SE3       30.31S
EAGLE RIVER    PTCLDY    28  28 100 CALM      30.32S
LAND O LAKES   CLEAR     25  25  97 CALM      30.32S
RHINELANDER      N/A     25  24  96 SE3       30.33R
PHILLIPS       CLEAR     31  30  96 CALM      30.29R
ANTIGO         FOG       31  31 100 SE3       30.34R VSB 1/4
TOMAHAWK       CLEAR     26  25  96 CALM      30.32S
MERRILL        CLEAR     24  23  97 CALM      30.34R
$$

WIZ013-073-221300-
NORTHEAST WISCONSIN

CITY           SKY/WX    TMP DP  RH WIND       PRES   REMARKS
IRON MOUNTAIN  FOG       28  27  96 CALM      30.34S VSB 1/4
MARINETTE      PTCLDY    28  27  93 CALM      30.36R
OCONTO         PTCLDY    28  28 100 CALM      30.37R
$$

WIZ017-030-035>037-045-221300-
CENTRAL WISCONSIN

CITY           SKY/WX    TMP DP  RH WIND       PRES   REMARKS
MEDFORD        CLEAR     32  31  97 SE5       30.31R
WAUSAU         CLEAR     30  28  92 CALM      30.33R
MOSINEE        CLEAR     30  30 100 CALM      30.34R
MARSHFIELD     CLEAR     30  28  92 E7        30.32S
WISC RAPIDS    CLEAR     27  25  92 E3        30.36R
STEVENS POINT  CLEAR     24  23  96 CALM      30.35R
WAUPACA        PTCLDY    30  29  96 CALM      30.36S FOG
SHAWANO        PTCLDY    32  30  93 NE3       30.37R
CLINTONVILLE   PTCLDY    30  28  93 CALM      30.36R
$$

WIZ038-039-048-051-221300-
FOX VALLEY

CITY           SKY/WX    TMP DP  RH WIND       PRES   REMARKS
NWS GREEN BAY  FOG       32  32 100 CALM      30.36S VSB<1/4
APPLETON       PTCLDY    32  30  93 VRB3      30.35R
OSHKOSH        PTCLDY    32  28  85 CALM      30.34R
FOND DU LAC    PTCLDY    27  24  89 CALM      30.34S
$$

WIZ022-050-052-221300-
EAST CENTRAL WISCONSIN

CITY           SKY/WX    TMP DP  RH WIND       PRES   REMARKS
STURGEON BAY   PTCLDY    36  30  80 SE5       30.36S
MANITOWOC      PTCLDY    29  28  96 CALM      30.36R
SHEBOYGAN      PTCLDY    28  26  92 N5        30.35R
$$

LMZ563-521-522-541>543-221300-
LAKESHORE

STATION/POSITION TIME  TEMP    WIND        PRES    VSBY  WAVE
                       AIR SEA DIR/SP/G                  HT/PER
                 (UTC) (F)     (DEG/KT/KT) (MB)    (MI)  (FT/S)
SHEBOYGAN LKSHOR 1200   46 49  110/ 10/ 11 1028.3R
KEWAUNEE LKSHORE 1200   31     290/  3/  4 1027.0R
TWO RIVERS CG    1200   43                 1029.3   3 1/2  1
NORTHPORT PIER   1200   41     180/  3/  6 1028.1S
N MID LAKE BUOY  1200   43 51  160/  4/  6 1029.0R         1
STURGEON BAY CG  1200   43 48  160/  4     1027.7      6   1
CHAMBERS ISLAND  1200   39     120/  3/  6 1028.1S
MENOMINEE LKSHOR 1200   33     290/  4/  5 1028.5R
$$



USA.gov is the U.S. government's official web portal to all federal, state and local government web resources and services.